Location: Constantia
(34.0183°S, 18.4411°E)
Time: 02:33:54
(UTC+00:00)

CZ-4B R/B - Pass Details

Date: 17 February 2020
Orbit: 808 x 882 km, 99.1° (Epoch: 03 April)

Event Time Altitude Azimuth Distance (km) Brightness Sun altitude
Rises 03:47:24 0° 12° (NNE) 3,322 6.2 -7.8°
Reaches altitude 10° 03:49:42 10° 10° (N) 2,404 5.5 -7.3°
Maximum altitude 03:55:01 78° 284° (WNW) 852 3.2 -6.3°
Drops below altitude 10° 04:00:31 10° 196° (SSW) 2,475 5.7 -5.2°
Sets 04:02:55 0° 194° (SSW) 3,427 6.4 -4.7°
